Regional Weather Roundup
Issued by NWS

Home | Current Version | Previous Version | Graphics & Text | Print | Product List | Glossary On
Versions: 1 2 3 4 5 6 7 8 9 10 11 12 13 14 15 16 17 18 19 20 21 22 23 24 25 26 27 28 29 30 31 32 33 34 35 36 37 38 39 40 41 42 43 44 45 46 47 48 49 50
000
ASUS43 KLOT 190100
RWRIL

ILLINOIS REGIONAL WEATHER ROUNDUP
NATIONAL WEATHER SERVICE CHICAGO/ROMEOVILLE IL
800 PM CDT FRI APR 18 2014

NOTE: "FAIR" INDICATES FEW OR NO CLOUDS BELOW 12,000 FEET WITH NO
SIGNIFICANT WEATHER AND/OR OBSTRUCTIONS TO VISIBILITY.

* THESE STATIONS ARE NOT UNDER NWS QUALITY CONTROL. THEY ALSO MAY NOT
  REPORT WEATHER SUCH AS PRECIPITATION OR FOG.

ILZ001-002-007-009-015-016-024-190200-
NORTHWEST ILLINOIS

CITY           SKY/WX    TMP DP  RH WIND       PRES   REMARKS
MOLINE         CLEAR     54  30  40 E7        30.25R
STERLING*      CLEAR     55  32  41 NE7       30.27R
$$

ILZ003-004-008-010-011-017-018-190200-
NORTH CENTRAL ILLINOIS

CITY           SKY/WX    TMP DP  RH WIND       PRES   REMARKS
ROCKFORD       CLEAR     51  35  54 E14       30.32R
$$

ILZ005-006-012>014-019>023-190200-
NORTHEAST ILLINOIS

CITY           SKY/WX    TMP DP  RH WIND       PRES   REMARKS
CHICAGO-OHARE  CLEAR     40  28  62 NE12      30.35R
CHICAGO-MIDWAY PTCLDY    40  31  70 NE15      30.35R
AURORA         CLEAR     45  33  63 NE14      30.32R
WAUKEGAN       CLEAR     35  27  72 N12G18    30.35S WCI  27
DUPAGE AIRPORT CLEAR     41  31  67 NE16      30.33R
WHEELING       CLEAR     38  29  70 NE12      30.37R WCI  30
NORTHERLY ISL    N/A     37  31  79 N15         N/A  WCI  28
$$

LMZ740>746-190200-
SOUTHERN LAKE MICHIGAN

STATION/POSITION SKY/WX   TEMP    WIND        PRES    VSBY  WAVE
                          AIR SEA DIR/SP/G                  HT/PER
                          (F)     (DEG/KT/KT) (MB)    (MI)  (FT/S)
WAUKEGAN HARBOR            36      30/ 20/ 22 1028.8F
HARRISON CRIB              37      30/ 17/ 19   N/A
BURNHAM HARBOR             37      20/ 14/ 15   N/A
CALUMET HARBOR             38      30/ 13/ 17 1028.2F
MICHIGAN CITY              37      20/ 19/ 21   N/A
$$

ILZ025>027-034>036-040-047-049-050-058-095>099-190200-
WEST-CENTRAL ILLINOIS

CITY           SKY/WX    TMP DP  RH WIND       PRES   REMARKS
QUINCY         CLEAR     60  33  36 NE6       30.21S
$$

ILZ028>032-037-038-041>044-048-051>054-059>061-190200-
CENTRAL ILLINOIS

CITY           SKY/WX    TMP DP  RH WIND       PRES   REMARKS
DECATUR        CLEAR     61  29  29 NE6       30.23R
PEORIA         CLEAR     60  28  29 NE5       30.25R
SPRINGFIELD    CLEAR     60  27  28 NE5       30.23R
TAYLORVILLE    NOT AVBL
$$

ILZ033-039-045-046-055>057-062-063-190200-
EAST-CENTRAL ILLINOIS

CITY           SKY/WX    TMP DP  RH WIND       PRES   REMARKS
CHAMPAIGN      CLEAR     59  28  30 NE6       30.24R
MATTOON        CLEAR     60  40  47 NE5       30.22R
$$

ILZ079-100>102-190200-
SOUTHWEST ILLINOIS

CITY           SKY/WX    TMP DP  RH WIND       PRES   REMARKS
ALTON          CLEAR     63  37  39 VRB3      30.22S
BELLEVILLE     CLEAR     64  43  45 CALM      30.21R
CAHOKIA*       CLEAR     63  44  50 E6        30.21R
$$

ILZ064>066-069>071-074>076-080>082-084>086-088>090-092>094-190200-
SOUTH-CENTRAL ILLINOIS

CITY           SKY/WX    TMP DP  RH WIND       PRES   REMARKS
CARBONDALE     CLEAR     65  41  41 N3        30.20S
MT. VERNON     CLEAR     57  37  47 CALM      30.23R
$$

ILZ067-068-072-073-078-083-087-091-190200-
SOUTHEAST ILLINOIS

CITY           SKY/WX    TMP DP  RH WIND       PRES   REMARKS
$$

ABBREVIATIONS USED IN REMARKS
   TC - TEMPERATURE IN CELSIUS
  WCI - WIND CHILL INDEX
   HX - HEAT INDEX
  VSB - VISIBILITY
$$




USA.gov is the U.S. government's official web portal to all federal, state and local government web resources and services.